Have a Safe July 4th! 

Flight Track Log - Related Links

Times and Time Zones

All times are in EDT time to prevent confusion due to time zone crossing. See the FLG3862 flight status page for this flight to view local times or setup timezone preferences in your user account.

Time Position Orientation Groundspeed Altitude Reporting Facility
EDT Latitude Longitude Course Direction KTS MPH feet Rate Location/Type
Sat 12:54:00 PM 44.3731 -73.6703 253° West  Level FlightAware Approximate
Sat 12:54:40 PM 44.4781 -73.4178 257° West 262 302 9,000  Level Boston Center
Sat 12:55:00 PM 44.3522 -73.8014 259° West  Level FlightAware Approximate
Sat 12:55:40 PM 44.4583 -73.5133 254° West 257 296 10,300  Level Boston Center
Sat 12:56:00 PM 44.3334 -73.9331 259° West  Level FlightAware Approximate
Sat 12:56:40 PM 44.4408 -73.6178 257° West 263 303 11,900  Level Boston Center
Sat 12:57:00 PM 44.3095 -74.0631 256° West  Level FlightAware Approximate
Sat 12:57:40 PM 44.4186 -73.7392 256° West 300 345 13,000  Level Boston Center
Sat 12:58:00 PM 44.2855 -74.1930 256° West  Level FlightAware Approximate
Sat 12:58:40 PM 44.3919 -73.8722 254° West 332 382 14,600  Level Boston Center
Sat 12:59:40 PM 44.3653 -74.0053 254° West 351 404 16,600 1,850 Climbing Boston Center
Sat 01:00:40 PM 44.3403 -74.1469 256° West 351 404 18,300 1,550 Climbing Boston Center
Sat 01:01:40 PM 44.3153 -74.2825 256° West 358 412 19,700 1,250 Climbing Boston Center
Sat 01:02:40 PM 44.2881 -74.4150 254° West 358 412 20,800 1,050 Climbing Boston Center
Sat 01:03:40 PM 44.2583 -74.5619 254° West 371 427 21,800 1,000 Climbing Boston Center
Sat 01:04:40 PM 44.2306 -74.7058 255° West 382 440 22,800 1,000 Climbing Boston Center
Sat 01:05:40 PM 44.2006 -74.8525 254° West 387 445 23,800 1,000 Climbing Boston Center
Sat 01:06:40 PM 44.1744 -75.0019 256° West 393 452 24,800 1,000 Climbing Boston Center
Sat 01:07:40 PM 44.1439 -75.1481 254° West 393 452 25,800 1,000 Climbing Boston Center
Sat 01:08:40 PM 44.1156 -75.2944 255° West 393 452 26,800 1,000 Climbing Boston Center
Sat 01:09:40 PM 44.0825 -75.4431 253° West 393 452 27,800 600 Climbing Boston Center
Sat 01:10:40 PM 44.0536 -75.5919 255° West 398 458 28,000 100 Climbing Boston Center
Sat 01:11:40 PM 44.0222 -75.7433 254° West 403 464 28,000  Level Boston Center
Sat 01:12:40 PM 43.9883 -75.9031 254° West 417 480 28,000  Level Boston Center
Sat 01:13:40 PM 43.9561 -76.0628 254° West 428 493 28,000  Level Boston Center
Sat 01:14:40 PM 43.9508 -76.2269 268° West 428 493 28,000  Level Boston Center
Sat 01:15:40 PM 43.9369 -76.3906 263° West 428 493 28,000  Level Boston Center
Sat 01:16:40 PM 43.9231 -76.5511 263° West 428 493 28,000  Level Boston Center
Sat 01:17:40 PM 43.9089 -76.7144 263° West 428 493 28,000  Level Boston Center
Sat 01:18:38 PM 43.8833 -76.8500 255° West 420 483 28,000  Level Toronto Center
Sat 01:19:38 PM 43.8667 -77.0000 261° West 430 495 28,000  Level Toronto Center
Sat 01:20:38 PM 43.8333 -77.1833 256° West 430 495 28,000  Level Toronto Center
Sat 01:21:38 PM 43.8167 -77.3167 260° West 420 483 28,000  Level Toronto Center
Sat 01:22:38 PM 43.8167 -77.5000 270° West 420 483 28,000  Level Toronto Center
Sat 01:23:38 PM 43.8000 -77.6500 261° West 420 483 28,000  Level Toronto Center
Sat 01:24:38 PM 43.7833 -77.8167 262° West 420 483 28,000  Level Toronto Center
Sat 01:25:38 PM 43.7667 -77.9667 261° West 410 472 28,000  Level Toronto Center
Sat 01:26:38 PM 43.7333 -78.1167 253° West 410 472 28,000  Level Toronto Center
Sat 01:27:38 PM 43.7167 -78.2667 261° West 410 472 28,000  Level Toronto Center
Sat 01:28:38 PM 43.7000 -78.4333 262° West 410 472 28,000  Level Toronto Center
Sat 01:29:38 PM 43.7000 -78.6000 270° West 410 472 28,000  Level Toronto Center
Sat 01:30:38 PM 43.6667 -78.7333 251° West 410 472 28,000  Level Toronto Center
Sat 01:31:38 PM 43.6000 -78.8667 235° Southwest 420 483 28,000  Level Toronto Center
Sat 01:32:38 PM 43.5500 -79.0167 245° Southwest 420 483 28,000  Level Toronto Center
Sat 01:33:38 PM 43.4833 -79.1500 235° Southwest 420 483 28,000  Level Toronto Center
Sat 01:34:38 PM 43.4167 -79.2833 235° Southwest 420 483 28,000  Level Toronto Center
Sat 01:35:38 PM 43.3667 -79.4333 245° Southwest 420 483 28,000  Level Toronto Center
Sat 01:36:38 PM 43.3000 -79.5667 236° Southwest 420 483 28,000  Level Toronto Center
Sat 01:37:38 PM 43.2333 -79.7000 236° Southwest 420 483 28,000 -350 Level Toronto Center
Sat 01:38:38 PM 43.1667 -79.8167 232° Southwest 420 483 27,300 -1,100 Descending Toronto Center
Sat 01:39:38 PM 43.0833 -79.9500 229° Southwest 420 483 25,800 -1,450 Descending Toronto Center
Sat 01:40:38 PM 43.0167 -80.0667 232° Southwest 410 472 24,400 -900 Descending Toronto Center
Sat 01:41:38 PM 42.9667 -80.1833 240° Southwest 390 449 24,000 -650 Descending Toronto Center
Sat 01:42:38 PM 42.9167 -80.3167 243° Southwest 390 449 23,100 -500 Descending Toronto Center
Sat 01:43:38 PM 42.8667 -80.4500 243° Southwest 400 460 23,000 -76 Descending Toronto Center
Sat 01:43:57 PM 42.8583 -80.5067 259° West 395 455 23,000  Level Cleveland Center
Sat 01:44:57 PM 42.8103 -80.6342 243° Southwest 390 449 23,000  Level Cleveland Center
Sat 01:45:57 PM 42.7581 -80.7586 240° Southwest 390 449 23,000 -250 Level Cleveland Center
Sat 01:46:57 PM 42.7100 -80.8828 242° Southwest 379 436 22,500 -1,000 Descending Cleveland Center
Sat 01:47:57 PM 42.6928 -81.0211 260° West 372 428 21,000 -1,250 Descending Cleveland Center
Sat 01:48:57 PM 42.6775 -81.1508 261° West 367 422 20,000 -500 Descending Cleveland Center
Sat 01:49:57 PM 42.6622 -81.2861 261° West 362 417 20,000  Level Cleveland Center
Sat 01:50:57 PM 42.6447 -81.4214 260° West 362 417 20,000  Level Cleveland Center
Sat 01:51:57 PM 42.6289 -81.5681 262° West 367 422 20,000  Level Cleveland Center
Sat 01:52:57 PM 42.6131 -81.7061 261° West 367 422 20,000  Level Cleveland Center
Sat 01:53:57 PM 42.5950 -81.8383 260° West 367 422 20,000  Level Cleveland Center
Sat 01:54:57 PM 42.5789 -81.9733 261° West 367 422 20,000 -850 Level Cleveland Center
Sat 01:55:57 PM 42.5625 -82.1139 261° West 367 422 18,300 -1,700 Descending Cleveland Center
Sat 01:56:57 PM 42.5439 -82.2544 260° West 372 428 16,600 -1,981 Descending Cleveland Center
Sat 01:57:40 PM 42.5319 -82.3583 261° West 376 433 14,900 -2,200 Descending Cleveland Center
Sat 01:57:57 PM 42.5272 -82.3919 259° West 372 428 14,400 -2,129 Descending Cleveland Center
Sat 01:58:42 PM 42.5153 -82.4903 261° West 323 372 12,700 -2,000 Descending Cleveland Center
Sat 01:58:57 PM 42.5106 -82.5183 257° West 365 420 12,400 -985 Descending Cleveland Center
Sat 01:59:49 PM 42.4861 -82.6161 251° West 319 367 11,600 -1,115 Descending Cleveland Center
Sat 02:00:50 PM 42.4486 -82.7217 244° Southwest 301 346 10,300 -1,180 Descending Cleveland Center
Sat 02:01:51 PM 42.4278 -82.8250 255° West 277 319 9,200 -1,122 Descending Cleveland Center
Sat 02:02:53 PM 42.4342 -82.9239 275° West 238 274 8,000 -1,128 Descending Cleveland Center
Sat 02:03:48 PM 42.4433 -82.9944 280° West 201 231 7,000 -1,086 Descending Cleveland Center
Sat 02:04:49 PM 42.4519 -83.0708 279° West 193 222 5,900 -938 Descending Cleveland Center
Sat 02:05:56 PM 42.4400 -83.1464 258° West 178 205 5,000 -563 Descending Cleveland Center
Sat 02:06:57 PM 42.4075 -83.1986 230° Southwest 169 194 4,700 -488 Descending Cleveland Center
Sat 02:07:59 PM 42.3672 -83.2278 208° Southwest 168 193 4,000 -677 Descending Cleveland Center

Login

Don't have an account? Register now (free) for customized features, flight alerts, and more!